#timestamp,LO_Frequency,Hit,StdDev 
1572253215.7,286046999.2,N
1572253235.6,286046999.6,N
1572253255.4,286046997.4,N
1572253275.2,286046998.7,N
1572253295.1,286046997.7,N
1572253296.0,286046997.7,N
1572253315.8,286046997.5,N
1572253335.7,286046997.7,N
1572253355.5,286046995.0,Y
1572253375.3,286046999.6,P
1572253395.2,286046996.8,P
1572253415.0,286046999.5,N
1572253415.9,286046999.5,N
1572253435.7,286046997.0,N
1572253455.6,286047001.0,N
1572253475.4,286046998.4,N
1572253495.3,286046996.6,N
1572253515.1,286047001.1,N
1572253516.0,286047001.1,N
1572253535.8,286046998.8,N
1572253555.7,286047000.5,N
1572253575.5,286047000.5,N
1572253595.3,286046999.9,N
1572253615.2,286047001.0,N
1572253635.0,286047000.5,N
1572253635.9,286047000.5,N
1572253655.8,286046998.1,N
1572253675.6,286047001.0,N
1572253695.4,286047002.4,N
1572253715.3,286047002.8,N
1572253735.1,286047002.6,N
1572253755.8,286047001.4,N
1572253775.7,286047002.0,N
1572253795.5,286047001.1,N
1572253815.4,286046999.9,N
1572253835.2,286047000.9,N
1572253855.0,286047000.4,N
1572253855.9,286047000.4,N
1572253875.8,286046999.7,N
1572253895.6,286047000.9,N
1572253915.4,286046999.9,N
1572253935.3,286046998.2,N
1572253955.1,286046998.1,N
1572253975.9,286047000.9,N
1572253995.7,286046998.2,N
1572254015.5,286047002.4,N
1572254035.4,286047000.4,N
1572254055.2,286047002.3,N
1572254075.0,286047002.4,N
1572254075.9,286047002.4,N
1572254095.8,286047001.5,N
1572254115.6,286047004.1,Y
1572254135.5,286047000.2,P
1572254155.3,286047002.7,P
1572254175.1,286046999.8,N
1572254195.9,286047000.4,N
1572254215.7,286047002.6,N
1572254235.5,286046998.5,N
1572254255.4,286046998.2,N
1572254275.2,286046998.7,N
1572254295.0,286046998.5,N
1572254296.0,286046998.5,N
1572254315.8,286046999.0,N
1572254335.6,286046999.5,N
1572254355.5,286046999.3,N
1572254375.3,286046999.6,N
1572254395.1,286046996.6,N
1572254415.9,286046998.8,N
1572254435.7,286046996.5,N
1572254455.5,286046999.3,N
1572254475.4,286046999.1,N
1572254495.2,286046997.9,N
1572254515.1,286046997.2,N
1572254516.0,286046997.2,N
1572254535.8,286046997.4,N
1572254555.6,286046995.4,N
1572254575.5,286046997.2,N
1572254595.3,286046999.3,N
1572254615.1,286046997.0,N
1572254635.9,286046997.6,N
1572254655.7,286046995.7,N
1572254675.6,286046995.8,N
1572254695.4,286046995.7,N
1572254715.2,286046993.7,Y
1572254735.1,286046996.6,P
1572254736.0,286046996.6,P
1572254755.8,286046997.5,P
1572254775.6,286046996.9,Y
1572254795.5,286047000.1,P
1572254815.3,286046999.8,N
1572254835.2,286047002.0,N
1572254855.9,286047003.9,N
1572254875.7,286047004.4,N
1572254895.6,286047003.8,N
1572254915.4,286047001.4,N
1572254935.2,286047003.9,N
1572254955.1,286047003.7,N
1572254956.0,286047003.7,N
1572254975.8,286047003.7,N
1572254995.7,286047001.9,N
1572255015.5,286047003.7,N
1572255035.3,286047003.1,N
1572255055.2,286047003.6,N
1572255075.9,286047003.7,N
1572255095.7,286047002.2,N
1572255115.6,286047002.7,N
1572255135.4,286047002.5,N
1572255155.2,286047004.0,N
1572255175.1,286047004.3,N
1572255176.0,286047004.3,N
1572255195.8,286047003.4,N
1572255215.7,286047006.0,Y
1572255235.5,286046999.9,P
1572255255.3,286047002.7,N
1572255275.2,286046999.8,N
1572255295.0,286047000.9,N
1572255295.9,286047000.9,N
1572255315.8,286046998.6,N
1572255335.6,286046999.0,N
1572255355.4,286046999.0,N
1572255375.3,286046998.9,N
1572255395.1,286046999.4,N
1572255415.8,286046998.9,N
1572255435.7,286046998.6,N
1572255455.5,286046998.9,N
1572255475.4,286046999.2,N
1572255495.2,286046998.8,N
1572255515.0,286047001.1,N
1572255515.9,286047001.1,N
1572255535.8,286047000.6,N
1572255555.6,286047000.7,N
1572255575.4,286047000.5,N
1572255595.3,286047001.0,N
1572255615.1,286047000.8,N
1572255635.9,286046998.7,N
1572255655.7,286046998.4,N
1572255675.5,286046999.6,N
1572255695.4,286046999.4,N
1572255715.2,286046998.7,N
1572255735.0,286046998.1,N
1572255766.0,286047000.8,E
1572255775.0,286047000.9,N
1572255775.9,286047000.9,P
1572255795.7,286047001.1,P
1572255815.6,286047000.3,N
1572255835.4,286047000.8,N
1572255855.3,286047000.7,N
1572255875.1,286047000.6,N
1572255876.0,286047000.6,N
1572255895.8,286046998.5,Y
1572255915.7,286047000.8,P
1572255935.5,286047000.0,N
1572255955.4,286047002.8,P
1572255975.2,286047001.8,N
1572255995.0,286047001.4,N
1572255995.9,286047001.4,N
1572256015.8,286047001.0,N
1572256035.6,286047001.1,N
1572256055.4,286046998.6,N
1572256075.3,286046999.2,N
1572256095.1,286046997.1,N
1572256115.9,286046999.3,N
1572256135.7,286046999.4,N
1572256155.5,286046996.5,N
1572256175.4,286046998.4,N
1572256195.2,286046998.6,N
1572256215.0,286046998.3,N
1572256215.9,286046998.3,N
1572256235.8,286046999.3,N
1572256255.6,286046999.3,N
1572256275.5,286046998.5,N
1572256295.3,286046998.4,N
1572256315.1,286046999.2,N
1572256335.9,286046995.0,Y
1572256355.7,286046999.6,P
1572256375.5,286046997.4,P
1572256395.4,286046999.0,N
1572256415.2,286047000.6,N
1572256435.1,286047001.0,N
1572256436.0,286047001.0,N
1572256455.8,286047000.7,N
1572256475.6,286047001.1,N
1572256495.5,286047000.2,N
1572256515.3,286047003.9,Y
1572256535.1,286047002.5,P
1572256555.9,286047000.2,N
1572256575.7,286047000.2,N
1572256595.6,286047000.6,N
1572256615.4,286047000.0,N
1572256635.2,286047000.7,N
1572256655.1,286046998.5,N
1572256656.0,286046998.5,N
1572256675.8,286046998.5,N
1572256695.6,286046998.6,N
1572256715.5,286047000.5,N
1572256735.3,286047000.2,N
1572256755.2,286047001.4,N
1572256775.9,286047000.0,N
1572256795.7,286047001.6,N
